KAC102 OKKK-OMDB

Flight info

Callsign KAC102
Flight time 1h 23m
Altitude 35000
Route SESRU M677 VUTEB
Aircraft A35K/H-SDE2E3GHIJ3J4J5LM1ORWXY/LB1D1

Departure

Time 2026-05-07 18:29
Airport Kuwait International Airport (OKKK)

Arrival

Time 2026-05-07 19:52
Airport Dubai International Airport (OMDB)
Time Latitude Longitude Altitude Speed Heading
2026-05-07 17:40 29.24828 47.96190 156 ft 0 kts 65°
2026-05-07 18:15 29.24817 47.96164 158 ft 4 kts 65°
2026-05-07 18:15 29.24806 47.96135 159 ft 4 kts 66°
2026-05-07 18:15 29.24795 47.96106 159 ft 4 kts 67°
2026-05-07 18:16 29.24785 47.96078 160 ft 4 kts 70°
2026-05-07 18:16 29.24777 47.96052 160 ft 3 kts 79°
2026-05-07 18:16 29.24776 47.96033 129 ft 2 kts 98°
2026-05-07 18:16 29.24781 47.96017 125 ft 2 kts 139°
2026-05-07 18:17 29.24791 47.96009 166 ft 2 kts 152°
2026-05-07 18:17 29.24801 47.96003 159 ft 2 kts 155°
2026-05-07 18:19 29.24798 47.96005 158 ft 1 kts 155°
2026-05-07 18:20 29.24786 47.96011 116 ft 3 kts 155°
2026-05-07 18:20 29.24765 47.96023 127 ft 4 kts 155°
2026-05-07 18:20 29.24731 47.96041 161 ft 7 kts 155°
2026-05-07 18:20 29.24680 47.96068 164 ft 9 kts 155°
2026-05-07 18:21 29.24618 47.96102 168 ft 10 kts 155°
2026-05-07 18:21 29.24552 47.96138 173 ft 11 kts 155°
2026-05-07 18:21 29.24479 47.96177 177 ft 12 kts 155°
2026-05-07 18:21 29.24393 47.96222 181 ft 15 kts 155°
2026-05-07 18:22 29.24294 47.96273 190 ft 17 kts 155°
2026-05-07 18:22 29.24220 47.96312 202 ft 19 kts 155°
2026-05-07 18:22 29.24035 47.96409 193 ft 24 kts 155°
2026-05-07 18:22 29.23876 47.96494 189 ft 27 kts 155°
2026-05-07 18:23 29.23702 47.96590 203 ft 28 kts 154°
2026-05-07 18:23 29.23519 47.96683 201 ft 30 kts 156°
2026-05-07 18:23 29.23329 47.96784 198 ft 31 kts 155°
2026-05-07 18:23 29.23175 47.96867 200 ft 11 kts 155°
2026-05-07 18:24 29.23092 47.96911 208 ft 15 kts 155°
2026-05-07 18:24 29.22984 47.96968 207 ft 19 kts 155°
2026-05-07 18:24 29.22847 47.97040 203 ft 23 kts 155°
2026-05-07 18:24 29.22690 47.97122 203 ft 26 kts 155°
2026-05-07 18:25 29.22520 47.97214 208 ft 28 kts 155°
2026-05-07 18:25 29.22338 47.97310 205 ft 30 kts 155°
2026-05-07 18:25 29.22145 47.97413 200 ft 32 kts 155°
2026-05-07 18:25 29.21931 47.97527 203 ft 35 kts 155°
2026-05-07 18:26 29.21699 47.97650 190 ft 38 kts 154°
2026-05-07 18:26 29.21485 47.97765 190 ft 15 kts 155°
2026-05-07 18:26 29.21386 47.97818 201 ft 17 kts 155°
2026-05-07 18:26 29.21296 47.97853 199 ft 0 kts 181°
2026-05-07 18:27 29.21285 47.97849 200 ft 4 kts 201°
2026-05-07 18:27 29.21258 47.97820 206 ft 7 kts 230°
2026-05-07 18:27 29.21242 47.97753 203 ft 11 kts 277°
2026-05-07 18:27 29.21262 47.97695 201 ft 13 kts 296°
2026-05-07 18:28 29.21366 47.97580 205 ft 18 kts 334°
2026-05-07 18:28 29.21594 47.97458 199 ft 69 kts 334°
2026-05-07 18:28 29.22259 47.97103 197 ft 140 kts 334°
2026-05-07 18:28 29.23222 47.96589 754 ft 152 kts 334°
2026-05-07 18:29 29.24177 47.96070 1465 ft 154 kts 330°
2026-05-07 18:29 29.25138 47.95524 2136 ft 156 kts 329°
2026-05-07 18:29 29.26133 47.94834 2453 ft 179 kts 322°
2026-05-07 18:29 29.27213 47.93942 2785 ft 204 kts 319°
2026-05-07 18:30 29.28418 47.92906 3141 ft 228 kts 319°
2026-05-07 18:30 29.29741 47.91800 3654 ft 244 kts 320°
2026-05-07 18:30 29.31184 47.90638 4143 ft 261 kts 321°
2026-05-07 18:30 29.32840 47.89674 4842 ft 275 kts 339°
2026-05-07 18:31 29.34743 47.89211 5628 ft 285 kts 349°
2026-05-07 18:31 29.36755 47.89370 6346 ft 300 kts 12°
2026-05-07 18:31 29.38576 47.90594 7055 ft 311 kts 45°
2026-05-07 18:31 29.39656 47.92710 7884 ft 310 kts 77°
2026-05-07 18:32 29.39772 47.95146 8774 ft 306 kts 101°
2026-05-07 18:32 29.39294 47.97513 9705 ft 305 kts 112°
2026-05-07 18:32 29.38569 47.99803 10565 ft 307 kts 115°
2026-05-07 18:32 29.37786 48.02076 11409 ft 311 kts 115°
2026-05-07 18:33 29.37025 48.04387 12203 ft 317 kts 112°
2026-05-07 18:33 29.36304 48.06791 13076 ft 321 kts 110°
2026-05-07 18:33 29.35630 48.09250 13927 ft 325 kts 109°
2026-05-07 18:33 29.34988 48.11748 14552 ft 330 kts 108°
2026-05-07 18:34 29.34357 48.14293 14885 ft 334 kts 108°
2026-05-07 18:34 29.33730 48.16862 14965 ft 335 kts 108°
2026-05-07 18:34 29.33102 48.19440 14966 ft 337 kts 108°
2026-05-07 18:34 29.32467 48.22032 14954 ft 338 kts 108°
2026-05-07 18:35 29.31830 48.24624 14956 ft 338 kts 110°
2026-05-07 18:35 29.31192 48.27217 14953 ft 338 kts 110°
2026-05-07 18:35 29.30531 48.29863 14995 ft 356 kts 110°
2026-05-07 18:35 29.29820 48.32666 15278 ft 377 kts 110°
2026-05-07 18:36 29.29072 48.35615 15596 ft 393 kts 110°
2026-05-07 18:36 29.28303 48.38669 16079 ft 403 kts 109°
2026-05-07 18:36 29.27525 48.41776 16709 ft 409 kts 109°
2026-05-07 18:36 29.26736 48.44936 17349 ft 414 kts 110°
2026-05-07 18:37 29.25940 48.48125 18054 ft 419 kts 110°
2026-05-07 18:37 29.25132 48.51347 18690 ft 423 kts 110°
2026-05-07 18:37 29.24317 48.54591 19350 ft 425 kts 110°
2026-05-07 18:37 29.23496 48.57855 19995 ft 429 kts 110°
2026-05-07 18:38 29.22661 48.61163 20533 ft 435 kts 110°
2026-05-07 18:38 29.21817 48.64504 21159 ft 439 kts 110°
2026-05-07 18:38 29.20967 48.67868 21868 ft 440 kts 111°
2026-05-07 18:38 29.20116 48.71234 22602 ft 442 kts 111°
2026-05-07 18:39 29.19267 48.74584 23211 ft 446 kts 111°
2026-05-07 18:39 29.18396 48.78015 23767 ft 450 kts 111°
2026-05-07 18:39 29.17517 48.81474 24274 ft 455 kts 111°
2026-05-07 18:39 29.16624 48.84964 24785 ft 459 kts 111°
2026-05-07 18:40 29.15496 48.88380 25294 ft 458 kts 120°
2026-05-07 18:40 29.13927 48.91532 25843 ft 455 kts 130°
2026-05-07 18:40 29.11913 48.94286 26345 ft 451 kts 141°
2026-05-07 18:40 29.09636 48.96754 26870 ft 452 kts 144°
2026-05-07 18:41 29.07262 48.99127 27378 ft 455 kts 145°
2026-05-07 18:41 29.04833 49.01463 27906 ft 458 kts 146°
2026-05-07 18:41 29.02374 49.03798 28391 ft 462 kts 146°
2026-05-07 18:41 28.99892 49.06161 28882 ft 466 kts 146°
2026-05-07 18:42 28.97400 49.08547 29329 ft 470 kts 145°
2026-05-07 18:42 28.94881 49.10973 29709 ft 476 kts 145°
2026-05-07 18:42 28.92339 49.13435 30137 ft 480 kts 145°
2026-05-07 18:42 28.89789 49.15911 30591 ft 482 kts 145°
2026-05-07 18:43 28.87243 49.18388 31198 ft 479 kts 146°
2026-05-07 18:43 28.84735 49.20887 31800 ft 478 kts 145°
2026-05-07 18:43 28.83091 49.22570 32167 ft 478 kts 145°
2026-05-07 18:43 28.79805 49.25976 32775 ft 480 kts 145°
2026-05-07 18:44 28.78173 49.27672 33051 ft 481 kts 145°
2026-05-07 18:44 28.75699 49.30237 33543 ft 480 kts 146°
2026-05-07 18:44 28.72398 49.33643 34213 ft 477 kts 146°
2026-05-07 18:44 28.70764 49.35324 34531 ft 476 kts 146°
2026-05-07 18:45 28.68301 49.37849 34868 ft 477 kts 147°
2026-05-07 18:45 28.63375 49.42891 34959 ft 478 kts 146°
2026-05-07 18:46 28.59029 49.48801 34959 ft 497 kts 131°
2026-05-07 18:46 28.55333 49.55494 34957 ft 500 kts 129°
2026-05-07 18:47 28.51765 49.62286 34929 ft 501 kts 129°
2026-05-07 18:47 28.48205 49.69040 34955 ft 501 kts 129°
2026-05-07 18:48 28.44598 49.75812 34937 ft 501 kts 129°
2026-05-07 18:48 28.40344 49.81870 34956 ft 481 kts 146°
2026-05-07 18:49 28.35113 49.86389 34950 ft 470 kts 154°
2026-05-07 18:49 28.29697 49.90503 34955 ft 467 kts 156°
2026-05-07 18:50 28.24260 49.94564 34955 ft 468 kts 155°
2026-05-07 18:50 28.18840 49.98645 34938 ft 468 kts 155°
2026-05-07 18:51 28.13421 50.02746 34954 ft 469 kts 155°
2026-05-07 18:51 28.07994 50.06858 34956 ft 469 kts 155°
2026-05-07 18:52 28.02605 50.10935 34953 ft 469 kts 155°
2026-05-07 18:52 27.97178 50.15034 34950 ft 469 kts 155°
2026-05-07 18:53 27.91751 50.19127 34952 ft 469 kts 155°
2026-05-07 18:53 27.86312 50.23224 34952 ft 469 kts 155°
2026-05-07 18:54 27.80878 50.27313 34947 ft 469 kts 154°
2026-05-07 18:54 27.75452 50.31393 34949 ft 468 kts 154°
2026-05-07 18:55 27.70029 50.35463 34942 ft 468 kts 155°
2026-05-07 18:55 27.64602 50.39531 34921 ft 468 kts 154°
2026-05-07 18:56 27.59201 50.43605 34939 ft 467 kts 154°
2026-05-07 18:56 27.53834 50.47730 34938 ft 467 kts 154°
2026-05-07 18:57 27.48464 50.51860 34931 ft 467 kts 154°
2026-05-07 18:57 27.43123 50.55956 34933 ft 467 kts 154°
2026-05-07 18:58 27.37757 50.60060 34931 ft 467 kts 154°
2026-05-07 18:58 27.32376 50.64162 34924 ft 467 kts 154°
2026-05-07 18:59 27.26994 50.68262 34920 ft 468 kts 154°
2026-05-07 18:59 27.21597 50.72370 34919 ft 468 kts 154°
2026-05-07 19:00 27.16216 50.76511 34920 ft 472 kts 150°
2026-05-07 19:00 27.11290 50.81491 34922 ft 480 kts 143°
2026-05-07 19:01 27.06560 50.86804 34920 ft 482 kts 142°
2026-05-07 19:01 27.01868 50.92182 34916 ft 484 kts 140°
2026-05-07 19:02 26.97807 50.98325 34917 ft 495 kts 129°
2026-05-07 19:02 26.94135 51.04867 34916 ft 496 kts 128°
2026-05-07 19:03 26.90522 51.11462 34910 ft 496 kts 128°
2026-05-07 19:03 26.87167 51.18252 34908 ft 504 kts 118°
2026-05-07 19:04 26.84763 51.25608 34909 ft 508 kts 114°
2026-05-07 19:04 26.82528 51.33114 34911 ft 508 kts 114°
2026-05-07 19:05 26.80311 51.40628 34901 ft 509 kts 114°
2026-05-07 19:05 26.78070 51.48135 34897 ft 508 kts 114°
2026-05-07 19:06 26.75815 51.55626 34892 ft 508 kts 114°
2026-05-07 19:06 26.72421 51.66862 34898 ft 509 kts 114°
2026-05-07 19:07 26.70172 51.74374 34887 ft 509 kts 113°
2026-05-07 19:07 26.67929 51.81874 34890 ft 509 kts 114°
2026-05-07 19:08 26.65673 51.89375 34893 ft 508 kts 114°
2026-05-07 19:08 26.63353 51.96820 34888 ft 507 kts 115°
2026-05-07 19:09 26.60911 52.04205 34882 ft 506 kts 115°
2026-05-07 19:09 26.58467 52.11589 34889 ft 507 kts 115°
2026-05-07 19:10 26.56054 52.18936 34877 ft 507 kts 115°
2026-05-07 19:10 26.53637 52.26318 34888 ft 506 kts 115°
2026-05-07 19:11 26.51216 52.33700 34879 ft 506 kts 115°
2026-05-07 19:11 26.48789 52.41081 34881 ft 507 kts 115°
2026-05-07 19:12 26.46357 52.48464 34877 ft 507 kts 115°
2026-05-07 19:12 26.43919 52.55848 34868 ft 507 kts 115°
2026-05-07 19:13 26.41481 52.63220 34878 ft 506 kts 115°
2026-05-07 19:13 26.39047 52.70584 34879 ft 506 kts 115°
2026-05-07 19:14 26.36602 52.77942 34881 ft 506 kts 115°
2026-05-07 19:14 26.34157 52.85298 34880 ft 506 kts 115°
2026-05-07 19:15 26.31716 52.92605 34866 ft 506 kts 115°
2026-05-07 19:15 26.29262 52.99938 34883 ft 504 kts 115°
2026-05-07 19:16 26.26805 53.07269 34880 ft 505 kts 115°
2026-05-07 19:16 26.24346 53.14591 34878 ft 505 kts 115°
2026-05-07 19:17 26.21884 53.21913 34881 ft 505 kts 115°
2026-05-07 19:17 26.19414 53.29244 34876 ft 505 kts 115°
2026-05-07 19:18 26.16895 53.36537 34874 ft 504 kts 117°
2026-05-07 19:18 26.14005 53.43619 34875 ft 501 kts 120°
2026-05-07 19:19 26.11036 53.50637 34874 ft 501 kts 119°
2026-05-07 19:19 26.09575 53.54142 34624 ft 496 kts 119°
2026-05-07 19:19 26.08156 53.57591 34377 ft 486 kts 118°
2026-05-07 19:20 26.06773 53.60980 34185 ft 476 kts 118°
2026-05-07 19:20 26.05425 53.64293 33874 ft 469 kts 118°
2026-05-07 19:20 26.04088 53.67574 33433 ft 464 kts 119°
2026-05-07 19:20 26.02757 53.70834 32974 ft 460 kts 119°
2026-05-07 19:21 26.01442 53.74051 32529 ft 456 kts 119°
2026-05-07 19:21 26.00136 53.77254 32027 ft 452 kts 118°
2026-05-07 19:21 25.98877 53.80426 31260 ft 446 kts 117°
2026-05-07 19:21 25.97648 53.83572 30457 ft 441 kts 117°
2026-05-07 19:22 25.96441 53.86679 29656 ft 436 kts 117°
2026-05-07 19:22 25.95247 53.89749 28820 ft 429 kts 117°
2026-05-07 19:22 25.94072 53.92758 28064 ft 421 kts 117°
2026-05-07 19:22 25.92915 53.95714 27332 ft 413 kts 117°
2026-05-07 19:23 25.91777 53.98611 26625 ft 405 kts 117°
2026-05-07 19:23 25.90625 54.01436 25904 ft 398 kts 118°
2026-05-07 19:23 25.89423 54.04171 25208 ft 391 kts 119°
2026-05-07 19:23 25.88212 54.06840 24539 ft 383 kts 119°
2026-05-07 19:24 25.87719 54.07920 24267 ft 381 kts 119°
2026-05-07 19:24 25.86532 54.10519 23586 ft 375 kts 119°
2026-05-07 19:24 25.85369 54.13087 22810 ft 369 kts 119°
2026-05-07 19:24 25.84233 54.15614 22061 ft 362 kts 118°
2026-05-07 19:25 25.83124 54.18099 21316 ft 356 kts 118°
2026-05-07 19:25 25.82099 54.20571 20578 ft 351 kts 113°
2026-05-07 19:25 25.81243 54.23081 19894 ft 344 kts 112°
2026-05-07 19:25 25.80439 54.25564 19201 ft 338 kts 111°
2026-05-07 19:26 25.79681 54.27979 18502 ft 334 kts 111°
2026-05-07 19:26 25.78936 54.30392 17832 ft 327 kts 111°
2026-05-07 19:26 25.78210 54.32755 17074 ft 321 kts 110°
2026-05-07 19:26 25.77488 54.35096 16253 ft 319 kts 110°
2026-05-07 19:27 25.76767 54.37427 15412 ft 319 kts 110°
2026-05-07 19:27 25.76050 54.39736 14678 ft 315 kts 110°
2026-05-07 19:27 25.75341 54.42015 13963 ft 311 kts 109°
2026-05-07 19:27 25.74634 54.44282 13134 ft 310 kts 109°
2026-05-07 19:28 25.73933 54.46532 12324 ft 307 kts 109°
2026-05-07 19:28 25.73235 54.48771 11651 ft 308 kts 109°
2026-05-07 19:28 25.72512 54.51085 11135 ft 329 kts 109°
2026-05-07 19:28 25.71747 54.53529 10902 ft 340 kts 109°
2026-05-07 19:29 25.70978 54.55987 10858 ft 342 kts 109°
2026-05-07 19:29 25.70452 54.57669 10857 ft 342 kts 109°
2026-05-07 19:29 25.69674 54.60157 10858 ft 341 kts 109°
2026-05-07 19:29 25.68631 54.63443 10859 ft 341 kts 110°
2026-05-07 19:30 25.67832 54.65918 10860 ft 341 kts 110°
2026-05-07 19:30 25.67032 54.68396 10864 ft 341 kts 110°
2026-05-07 19:30 25.66234 54.70872 10864 ft 341 kts 110°
2026-05-07 19:30 25.65435 54.73349 10864 ft 341 kts 110°
2026-05-07 19:31 25.64908 54.74986 10864 ft 341 kts 110°
2026-05-07 19:31 25.64110 54.77463 10865 ft 341 kts 109°
2026-05-07 19:31 25.63301 54.79975 10864 ft 342 kts 109°
2026-05-07 19:31 25.62512 54.82424 10864 ft 342 kts 109°
2026-05-07 19:32 25.61712 54.84905 10867 ft 342 kts 110°
2026-05-07 19:32 25.60906 54.87388 10866 ft 343 kts 110°
2026-05-07 19:32 25.59990 54.89825 10867 ft 342 kts 114°
2026-05-07 19:32 25.59017 54.92243 10583 ft 345 kts 114°
2026-05-07 19:33 25.58048 54.94663 10105 ft 341 kts 114°
2026-05-07 19:33 25.57114 54.97024 9902 ft 327 kts 114°
2026-05-07 19:33 25.56229 54.99275 9749 ft 312 kts 113°
2026-05-07 19:33 25.55376 55.01451 9306 ft 309 kts 113°
2026-05-07 19:34 25.54480 55.03602 8954 ft 307 kts 117°
2026-05-07 19:34 25.53442 55.05676 8874 ft 308 kts 120°
2026-05-07 19:34 25.52370 55.07742 8514 ft 310 kts 120°
2026-05-07 19:34 25.51296 55.09805 8124 ft 306 kts 120°
2026-05-07 19:35 25.50236 55.11842 8094 ft 306 kts 120°
2026-05-07 19:35 25.49181 55.13871 8101 ft 305 kts 120°
2026-05-07 19:35 25.48138 55.15882 8102 ft 305 kts 120°
2026-05-07 19:35 25.47080 55.17919 8097 ft 305 kts 120°
2026-05-07 19:36 25.45960 55.19915 8093 ft 305 kts 127°
2026-05-07 19:36 25.44600 55.21717 8099 ft 306 kts 132°
2026-05-07 19:36 25.43169 55.23465 8096 ft 307 kts 132°
2026-05-07 19:36 25.41729 55.25216 8098 ft 307 kts 132°
2026-05-07 19:37 25.40296 55.26966 8099 ft 307 kts 132°
2026-05-07 19:37 25.38861 55.28722 8099 ft 308 kts 132°
2026-05-07 19:37 25.37428 55.30477 8097 ft 304 kts 132°
2026-05-07 19:37 25.36040 55.32201 8108 ft 298 kts 130°
2026-05-07 19:38 25.34848 55.34065 8112 ft 296 kts 122°
2026-05-07 19:38 25.33771 55.35996 8116 ft 296 kts 121°
2026-05-07 19:38 25.32698 55.37943 8117 ft 297 kts 121°
2026-05-07 19:38 25.31621 55.39889 8117 ft 297 kts 121°
2026-05-07 19:39 25.30543 55.41832 8092 ft 296 kts 121°
2026-05-07 19:39 25.29467 55.43769 8091 ft 296 kts 121°
2026-05-07 19:39 25.28349 55.45687 8086 ft 297 kts 127°
2026-05-07 19:39 25.26822 55.47174 7826 ft 291 kts 152°
2026-05-07 19:40 25.24909 55.47840 7290 ft 290 kts 177°
2026-05-07 19:40 25.22937 55.47545 6819 ft 287 kts 202°
2026-05-07 19:40 25.21157 55.46584 6399 ft 284 kts 211°
2026-05-07 19:40 25.19470 55.45464 6023 ft 279 kts 215°
2026-05-07 19:41 25.18118 55.44000 5818 ft 267 kts 230°
2026-05-07 19:41 25.16800 55.42666 5557 ft 250 kts 216°
2026-05-07 19:41 25.15376 55.41641 5167 ft 240 kts 213°
2026-05-07 19:41 25.13879 55.40930 4656 ft 238 kts 190°
2026-05-07 19:42 25.12260 55.41102 4173 ft 236 kts 159°
2026-05-07 19:42 25.10957 55.42181 3919 ft 236 kts 130°
2026-05-07 19:42 25.10014 55.43677 3863 ft 239 kts 123°
2026-05-07 19:42 25.09148 55.45245 3864 ft 239 kts 122°
2026-05-07 19:43 25.08307 55.46797 3857 ft 229 kts 122°
2026-05-07 19:43 25.07498 55.48299 3862 ft 225 kts 122°
2026-05-07 19:43 25.06715 55.49755 3865 ft 218 kts 122°
2026-05-07 19:43 25.05943 55.51193 3918 ft 217 kts 122°
2026-05-07 19:44 25.05171 55.52631 4000 ft 218 kts 122°
2026-05-07 19:44 25.04399 55.54070 4014 ft 218 kts 122°
2026-05-07 19:44 25.03628 55.55510 4012 ft 218 kts 122°
2026-05-07 19:44 25.02868 55.56962 3926 ft 221 kts 118°
2026-05-07 19:45 25.02540 55.58622 3499 ft 224 kts 85°
2026-05-07 19:45 25.03063 55.60186 3151 ft 215 kts 49°
2026-05-07 19:45 25.04140 55.61287 3042 ft 213 kts 34°
2026-05-07 19:45 25.05350 55.62247 3021 ft 214 kts 32°
2026-05-07 19:46 25.06573 55.63186 3018 ft 214 kts 32°
2026-05-07 19:46 25.07914 55.63839 3014 ft 209 kts
2026-05-07 19:46 25.09301 55.63652 3019 ft 199 kts 338°
2026-05-07 19:46 25.10578 55.63083 3013 ft 197 kts 333°
2026-05-07 19:47 25.11675 55.62218 3014 ft 194 kts 308°
2026-05-07 19:47 25.12461 55.61024 3006 ft 192 kts 300°
2026-05-07 19:47 25.13123 55.59806 3012 ft 183 kts 298°
2026-05-07 19:47 25.13684 55.58554 3005 ft 181 kts 291°
2026-05-07 19:48 25.14162 55.57271 3003 ft 181 kts 290°
2026-05-07 19:48 25.14639 55.55988 2999 ft 181 kts 292°
2026-05-07 19:48 25.15242 55.54743 2699 ft 189 kts 297°
2026-05-07 19:48 25.15895 55.53495 2437 ft 183 kts 299°
2026-05-07 19:49 25.16521 55.52326 2152 ft 172 kts 299°
2026-05-07 19:49 25.17109 55.51232 2011 ft 162 kts 300°
2026-05-07 19:49 25.17694 55.50151 1867 ft 165 kts 301°
2026-05-07 19:49 25.18296 55.49078 1683 ft 164 kts 301°
2026-05-07 19:50 25.18887 55.48006 1423 ft 162 kts 300°
2026-05-07 19:50 25.19460 55.46932 1195 ft 161 kts 303°
2026-05-07 19:50 25.20051 55.45871 976 ft 164 kts 302°
2026-05-07 19:50 25.20644 55.44804 829 ft 163 kts 302°
2026-05-07 19:51 25.21215 55.43767 664 ft 153 kts 302°
2026-05-07 19:51 25.21756 55.42798 589 ft 147 kts 302°
2026-05-07 19:51 25.22288 55.41839 464 ft 148 kts 302°
2026-05-07 19:51 25.22841 55.40841 306 ft 154 kts 301°
2026-05-07 19:52 25.23400 55.39831 111 ft 154 kts 302°
2026-05-07 19:52 25.23951 55.38852 30 ft 141 kts 302°
2026-05-07 19:52 25.24339 55.38143 32 ft 67 kts 302°
2026-05-07 19:52 25.24478 55.37892 30 ft 35 kts 300°
2026-05-07 19:53 25.24602 55.37587 28 ft 38 kts 281°
2026-05-07 19:53 25.24613 55.37445 28 ft 16 kts 272°
2026-05-07 19:53 25.24614 55.37427 28 ft 0 kts 272°
2026-05-07 19:54 25.24615 55.37393 28 ft 7 kts 272°
2026-05-07 19:54 25.24619 55.37316 27 ft 12 kts 275°
2026-05-07 19:54 25.24650 55.37214 28 ft 16 kts 301°
2026-05-07 19:55 25.24675 55.37167 28 ft 0 kts 300°
2026-05-07 19:55 25.24676 55.37165 28 ft 1 kts 296°
2026-05-07 19:55 25.24673 55.37152 28 ft 2 kts 251°
2026-05-07 19:55 25.24656 55.37139 28 ft 6 kts 216°
2026-05-07 19:56 25.24606 55.37103 27 ft 11 kts 212°
2026-05-07 19:56 25.24546 55.37062 27 ft 0 kts 212°
2026-05-07 19:57 25.24530 55.37051 27 ft 0 kts 211°